LA8QT Lodingen NO current weather conditions

sailwx.info

Wind from 030

Air temperature 6.7° C
Dewpoint 3.6° C

Last reported at 2014-Oct-25 06:47 UTC.
Time now 2014-Oct-25 07:57 UTC

Location: N 68°28' E 016°04'.
View on Google Maps.

See reports from other nearby stations

  
Tides and Currents Weather Stations Pressure Air Temp Water Temp Dewpoint Dewpoint Depression Visibility Wind Speed Wind Dir Waves Ship Positions
date/time (UTC)wind fromknots sea level pressurealtimeterstation pressurevisibilityair tempwater tempwave heightnotes
2014-Oct-25 06:47 030 6.7
2014-Oct-25 06:32 030 6.7
2014-Oct-25 06:17 030 6.7
2014-Oct-25 06:02 030 6.7
2014-Oct-25 05:47 030 6.7
2014-Oct-25 05:32 030 3 7.2
2014-Oct-25 05:17 030 1 7.2
2014-Oct-25 05:02 030 0 7.2
2014-Oct-25 04:47 029 4 7.2
2014-Oct-25 04:32 030 4 7.2
2014-Oct-25 04:17 029 3 7.2
2014-Oct-25 04:02 029 0 7.2
2014-Oct-25 03:47 029 6.7
2014-Oct-25 03:32 029 7.2
2014-Oct-25 03:17 029 7.2
2014-Oct-25 03:02 029 2 7.8
2014-Oct-25 02:47 029 2 7.2
2014-Oct-25 02:32 029 1 7.8
2014-Oct-25 02:17 029 2 7.8
2014-Oct-25 02:02 029 7.8
2014-Oct-25 01:47 029 7.2
2014-Oct-25 01:32 029 1 7.8
2014-Oct-25 01:17 029 0 7.8
2014-Oct-25 01:02 029 4 7.8
2014-Oct-25 00:47 027 1 8.3
2014-Oct-25 00:32 256 0 8.3
2014-Oct-25 00:17 256 8.3
2014-Oct-25 00:02 256 8.3
2014-Oct-24 23:47 256 8.3
2014-Oct-24 23:32 256 0 9.4
2014-Oct-24 23:17 265 9.4
2014-Oct-24 23:02 267 8.9
2014-Oct-24 22:47 267 0 9.4
2014-Oct-24 22:32 289 4 9.4
2014-Oct-24 22:17 277 6 9.4
2014-Oct-24 22:02 270 4 8.9
2014-Oct-24 21:47 284 3 8.9
2014-Oct-24 21:31 278 2 8.9
2014-Oct-24 21:16 269 3 8.3
2014-Oct-24 21:01 280 3 8.3
2014-Oct-24 20:46 272 6 8.3
2014-Oct-24 20:31 230 6 8.9
2014-Oct-24 20:16 224 5 8.9
2014-Oct-24 20:01 268 7 8.9
2014-Oct-24 19:46 265 6 8.3
2014-Oct-24 19:31 263 3 8.3
2014-Oct-24 19:16 255 5 8.9
2014-Oct-24 19:01 250 3 8.9
2014-Oct-24 18:46 226 6 8.9
2014-Oct-24 18:31 228 4 8.9
2014-Oct-24 18:16 241 5 8.9
2014-Oct-24 18:01 236 5 8.9
2014-Oct-24 17:46 247 4 8.9
2014-Oct-24 17:31 263 5 8.9
2014-Oct-24 17:16 245 6 8.9
2014-Oct-24 17:01 236 4 9.4
2014-Oct-24 16:46 210 6 9.4
2014-Oct-24 16:31 242 6 8.9
2014-Oct-24 16:16 253 5 8.9
2014-Oct-24 16:01 243 3 8.9
2014-Oct-24 15:46 240 4 8.9
2014-Oct-24 15:31 235 4 9.4
2014-Oct-24 15:16 251 3 8.9
2014-Oct-24 15:01 234 0 8.9
2014-Oct-24 14:46 234 8.3
2014-Oct-24 14:16 234 0 8.9
2014-Oct-24 14:01 234 0 8.3
2014-Oct-24 13:46 232 7.8
2014-Oct-24 13:31 232 3 8.3
2014-Oct-24 13:16 236 6 8.9
2014-Oct-24 13:01 238 4 8.9
2014-Oct-24 12:46 253 3 8.9
2014-Oct-24 12:31 253 3 8.9
2014-Oct-24 12:16 260 4 8.9
2014-Oct-24 12:01 272 4 8.3
2014-Oct-24 11:46 273 1 8.3
2014-Oct-24 11:31 272 3 8.3
2014-Oct-24 11:16 319 3 8.3
2014-Oct-24 11:01 031 7.2
2014-Oct-24 10:46 030 6.7
2014-Oct-24 10:31 030 6.1
2014-Oct-24 10:16 030 6.1
2014-Oct-24 10:01 031 6.7
2014-Oct-24 09:46 031 6.7
2014-Oct-24 09:31 031 6.1
2014-Oct-24 09:16 031 0 6.1
2014-Oct-24 09:01 035 1 5.6
2014-Oct-24 08:46 036 4 6.1
2014-Oct-24 08:31 028 3 5.6
2014-Oct-24 08:16 340 5.0
2014-Oct-24 08:01 340 0 4.4
2014-Oct-24 07:46 341 0 5.0
2014-Oct-24 07:31 341 5.0
2014-Oct-24 07:16 341 2 5.6
2014-Oct-24 07:01 351 1 5.6
2014-Oct-24 06:46 356 4.4
2014-Oct-24 06:31 356 1 5.0
2014-Oct-24 06:16 356 3 5.0
2014-Oct-24 06:01 343 5.6
2014-Oct-24 05:46 343 0 4.4
2014-Oct-24 05:30 343 0 4.4
2014-Oct-24 05:15 343 0 4.4
2014-Oct-24 05:00 343 1 5.0
2014-Oct-24 04:45 343 5.0
2014-Oct-24 04:30 343 5.6
2014-Oct-24 04:15 343 1 6.7
2014-Oct-24 04:00 346 1 6.7
2014-Oct-24 03:45 355 1 6.7
2014-Oct-24 03:30 359 6.1
2014-Oct-24 03:15 359 5.6
2014-Oct-24 03:00 359 6.1
2014-Oct-24 02:45 359 5.0
2014-Oct-24 02:30 359 5.6
2014-Oct-24 02:15 358 5.6
2014-Oct-24 02:00 358 5.6
2014-Oct-24 01:45 359 5.6
2014-Oct-24 01:30 359 5.6
2014-Oct-24 01:15 359 1 5.6
2014-Oct-24 01:00 359 2 5.6
2014-Oct-24 00:45 355 5.0
2014-Oct-24 00:30 355 5.0
2014-Oct-24 00:15 355 0 5.0
2014-Oct-24 00:00 354 1 5.0
2014-Oct-23 23:45 353 5.0
2014-Oct-23 23:30 353 5.0
2014-Oct-23 23:15 353 2 5.0
2014-Oct-23 23:00 346 4 4.4
2014-Oct-23 22:45 260 0 3.9
2014-Oct-23 22:30 257 1 3.9
2014-Oct-23 22:15 254 0 3.9
2014-Oct-23 22:00 253 1 3.9
2014-Oct-23 21:45 227 0 3.9
2014-Oct-23 21:30 209 0 4.4
2014-Oct-23 21:15 221 1 5.0
2014-Oct-23 21:00 241 5.0
2014-Oct-23 20:45 251 2 5.0
2014-Oct-23 20:30 240 3 5.0
2014-Oct-23 20:15 138 0 4.4
2014-Oct-23 20:00 138 0 3.9
2014-Oct-23 19:45 148 2 4.4
2014-Oct-23 19:30 149 1 5.0
2014-Oct-23 19:15 150 6 5.0
2014-Oct-23 19:00 180 2 5.6
2014-Oct-23 18:45 226 0 6.1
2014-Oct-23 18:30 169 4 6.7
2014-Oct-23 18:15 183 0 6.7
2014-Oct-23 17:59 197 1 6.7
2014-Oct-23 17:44 217 0 6.7
2014-Oct-23 17:29 210 6.7
2014-Oct-23 17:14 210 1 6.7
2014-Oct-23 16:59 200 0 6.7
2014-Oct-23 16:44 197 0 6.7
2014-Oct-23 16:29 202 0 6.7
2014-Oct-23 16:14 222 0 6.7
2014-Oct-23 15:59 201 3 6.7
2014-Oct-23 15:44 200 10 6.7
2014-Oct-23 15:29 221 14 6.7
2014-Oct-23 15:14 200 11 6.7
2014-Oct-23 14:59 197 11 6.7
2014-Oct-23 14:44 222 15 6.7
2014-Oct-23 14:29 213 14 6.7
2014-Oct-23 14:14 217 10 6.7
2014-Oct-23 13:59 206 12 6.7
2014-Oct-23 13:44 203 13 6.7
2014-Oct-23 13:29 218 18 6.1
2014-Oct-23 13:14 191 18 6.1
2014-Oct-23 12:59 197 20 6.1
2014-Oct-23 12:44 203 18 6.1
2014-Oct-23 12:29 207 18 6.1
2014-Oct-23 12:14 190 17 6.1
2014-Oct-23 11:59 203 17 6.1
2014-Oct-23 11:44 199 18 6.1
2014-Oct-23 11:29 199 17 6.1
2014-Oct-23 11:14 205 18 6.1
2014-Oct-23 10:59 189 13 6.1
2014-Oct-23 10:44 236 15 6.1
2014-Oct-23 10:29 201 18 6.1
2014-Oct-23 10:14 232 13 5.6
2014-Oct-23 09:59 205 18 5.6
2014-Oct-23 09:44 202 16 5.6
2014-Oct-23 09:29 214 16 5.6
2014-Oct-23 09:14 202 17 5.6
2014-Oct-23 08:59 197 14 5.6
2014-Oct-23 08:44 202 13 5.6
2014-Oct-23 08:29 197 9 5.6
2014-Oct-23 08:14 199 11 5.6
2014-Oct-23 07:59 210 10 5.6
2014-Oct-23 07:44 201 9 5.6
2014-Oct-23 07:28 213 14 5.6
2014-Oct-23 07:13 205 13 5.6